Home   Weather   Prospect   Past weeks
Flag for USA

Past Weather in Prospect, Kentucky, USA — Yesterday and Last 2 Weeks

Now
79 °F

Clear.


Feels Like: 81 °F
Forecast: 85 / 74 °F
Wind: 9 mph from Southeast

Location: Bowman Field

Current Time: Jul 16, 2019 at 12:44:31 am

Latest Report: Jul 15, 2019 at 11:53 pm


Visibility: 10 mi

Pressure: 30.04 "Hg

Humidity: 69%

Dew Point: 68 °F

Location of ProspectLocation

Past Weather in Prospect — Graph

°F

Prospect Temperature Yesterday

Maximum temperature yesterday: 88 °F (at 12:53 pm)
Minimum temperature yesterday: 73 °F (at 5:53 am)
Average temperature yesterday: 81 °F

High & Low Weather Summary for the Past Weeks

 TemperatureHumidityPressure
High92 °F (Jul 2, 3:53 pm)91% (Jul 2, 1:53 am)30.16 "Hg (Jul 2, 1:53 am)
Low63 °F (Jul 13, 2:53 am)32% (Jul 13, 6:53 pm)29.81 "Hg (Jul 11, 5:53 pm)
Average81 °F69%29.98 "Hg
* Reported Jun 30 10:53 pm — Jul 15 10:53 pm, Prospect. Weather by CustomWeather, © 2019

Note: Actual official high and low records may vary slightly from our data, if they occured in-between our weather recording intervals... More about our weather records

Advertising

Prospect Weather History for the Previous 24 Hours

Scroll right to see more
 ConditionsComfort  
Time TempWeatherWind HumidityBarometerVisibility
10:53 pm
Mon, Jul 15
78 °FClear.7 mph74%30.04 "Hg10 mi
9:53 pm79 °FClear.8 mph72%30.05 "Hg10 mi
8:53 pm80 °FScattered clouds.6 mph69%30.04 "Hg10 mi
7:53 pm82 °FPartly sunny.6 mph65%30.06 "Hg10 mi
6:53 pm83 °FPassing clouds.8 mph65%30.07 "Hg10 mi
5:53 pm85 °FPartly sunny.7 mph59%30.07 "Hg10 mi
4:53 pm86 °FPassing clouds.5 mph55%30.06 "Hg10 mi
3:53 pm85 °FSunny.6 mph57%30.09 "Hg10 mi
3:10 pm86 °FSunny.8 mph55%30.11 "Hg10 mi
2:31 pm86 °FThundershowers. Scattered clouds.14 mph57%30.12 "Hg10 mi
1:53 pm87 °FScattered clouds.13 mph57%30.11 "Hg10 mi
12:53 pm88 °FScattered clouds.3 mph54%30.12 "Hg10 mi
11:53 am87 °FSunny.5 mph55%30.11 "Hg10 mi
10:53 am87 °FSunny.6 mph53%30.11 "Hg10 mi
9:53 am83 °FSunny.No wind63%30.12 "Hg10 mi
8:53 am80 °FSunny.No wind71%30.12 "Hg10 mi
7:53 am76 °FPassing clouds.No wind85%30.11 "Hg10 mi
6:53 am73 °FSunny.No wind84%30.11 "Hg10 mi
5:53 am73 °FClear.No wind84%30.11 "Hg10 mi
4:53 am75 °FPassing clouds.No wind79%30.09 "Hg10 mi
3:53 am78 °FPassing clouds.No wind71%30.09 "Hg10 mi
2:53 am79 °FOvercast.6 mph69%30.10 "Hg10 mi
1:53 am80 °FPassing clouds.6 mph69%30.10 "Hg10 mi
12:53 am79 °FClear.5 mph72%30.11 "Hg10 mi
Weather by CustomWeather, © 2019

See weather overview

LIVE PARTIAL LUNAR ECLIPSE – Watch the eclipse as it happens